This demonstration page uses our WeatherBlox Daily Observations layout. Learn more.

Left ArrowRight Arrow

44.89941, -97.11507

Hourly Observations for July 26, 2016

Temp ( °F °C ) Dew Point ( °F °C ) Humidity (%) Winds ( mph kmh ) Pressure ( in mb ) Visibility ( mi km ) Precip ( " mm )
12:53 am 00:53 Clear 73 22.8 63 17.2 71 71 S 9 15 30.00 1016 10 16 0.00 0.00
1:53 am 01:53 Clear 71 21.7 62 16.7 73 73 S 8 13 30.00 1016 10 16 0.00 0.00
2:53 am 02:53 Clear 70 21.1 62 16.7 76 76 SSE 9 15 29.99 1016 10 16 0.00 0.00
3:53 am 03:53 Clear 70 21.1 63 17.2 79 79 SSW 8 13 29.99 1016 10 16 0.00 0.00
4:53 am 04:53 Clear 68 20 63 17.2 84 84 S 8 13 29.99 1016 10 16 0.00 0.00
5:53 am 05:53 Clear 68 20 62 16.7 81 81 SSE 9 15 29.99 1016 10 16 0.00 0.00
6:53 am 06:53 Sunny 68 20 63 17.2 84 84 S 10 17 29.99 1016 10 16 0.00 0.00
7:53 am 07:53 Sunny 73 22.8 63 17.2 71 71 VRB 3 6 30.01 1016 10 16 0.00 0.00
8:53 am 08:53 Sunny 76 24.4 63 17.2 64 64 SW 10 17 30.02 1017 10 16 0.00 0.00
9:53 am 09:53 Sunny 79 26.1 64 17.8 60 60 SSW 12 19 30.02 1017 10 16 0.00 0.00
10:53 am 10:53 Sunny 82 27.8 66 18.9 58 58 SW 13 20 30.01 1016 10 16 0.00 0.00
11:53 am 11:53 Sunny 83 28.3 67 19.4 59 59 W 9 15 30.01 1016 10 16 0.00 0.00
12:53 pm 12:53 Sunny 84 28.9 68 20 59 59 SW 8 13 29.99 1016 10 16 0.00 0.00
1:53 pm 13:53 Partly Cloudy 81 27.2 69 20.6 67 67 WNW 12 19 30.00 1016 10 16 0.00 0.00
2:13 pm 14:13 Mostly Sunny 76 24.4 62 16.7 62 62 NW 12 19 29.94 1014 10 16 0.00 0.00
2:44 pm 14:44 Mostly Cloudy with Thunderstorms 75 23.9 63 17.2 66 66 NNW 7 11 29.97 1015 10 16 0.00 0.03
2:53 pm 14:53 Cloudy with Light Rain 73 22.8 64 17.8 74 74 N 7 11 30.02 1017 10 16 0.01 0.25
3:28 pm 15:28 Cloudy with Nearby Thunderstorms 72 22.2 68 20 87 87 SSW 5 7 29.97 1015 10 16 0.02 0.51
3:43 pm 15:43 Cloudy with Rain 73 22.8 68 20 84 84 WSW 10 17 29.97 1015 4 6 0.05 1.27
3:53 pm 15:53 Cloudy with Rain 73 22.8 67 19.4 81 81 SW 7 11 30.03 1017 5 8 0.07 1.78
4:53 pm 16:53 Cloudy with Light Rain 72 22.2 65 18.3 79 79 S 6 9 29.99 1016 10 16 0.07 1.78
5:53 pm 17:53 Mostly Sunny 75 23.9 66 18.9 74 74 SSW 12 19 29.94 1014 10 16 0.03 0.76
6:53 pm 18:53 Sunny 76 24.4 65 18.3 69 69 S 9 15 29.93 1014 10 16 0.00 0.00
7:53 pm 19:53 Sunny 75 23.9 65 18.3 71 71 SE 5 7 29.93 1013 10 16 0.00 0.00
8:53 pm 20:53 Mostly Cloudy 74 23.3 64 17.8 71 71 Calm 29.94 1014 10 16 0.00 0.00
9:53 pm 21:53 Mostly Cloudy 72 22.2 64 17.8 76 76 E 10 17 29.94 1014 10 16 0.00 0.00
10:25 pm 22:25 Partly Cloudy with Nearby Thunderstorms 72 22.2 63 17.2 73 73 E 9 15 29.91 1013 10 16 0.00 0.00
10:40 pm 22:40 Mostly Cloudy 72 22.2 63 17.2 73 73 VRB 5 7 29.91 1013 10 16 0.00 0.00
10:53 pm 22:53 Mostly Cloudy 72 22.2 63 17.2 73 73 E 6 9 29.95 1014 10 16 0.00 0.00
11:53 pm 23:53 Clear 72 22.2 64 17.8 76 76 ESE 8 13 29.93 1014 10 16 0.00 0.00

Powered by AerisWeather